This demonstration page uses our WeatherBlox Daily Observations layout. Learn more.

39.92423, -83.80882

Hourly Observations for June 11, 2016

Temp ( °F °C ) Dew Point ( °F °C ) Humidity (%) Winds ( mph kmh ) Pressure ( in mb ) Visibility ( mi km ) Precip ( " mm )
12:56 am 00:56 Mostly Clear 72 22.2 67 19.4 84 84 SSW 8 13 30.05 1018 10 16.0934 0 0
1:56 am 01:56 Clear 71 21.6 67 19.4 87 87 SSW 10 17 30.04 1017 10 16.0934 0 0
2:56 am 02:56 Clear 70 21.1 66 18.8 87 87 SSW 8 13 30.04 1017 10 16.0934 0 0
3:56 am 03:56 Clear 69 20.5 65 18.3 87 87 SSW 8 13 30.03 1017 10 16.0934 0 0
4:56 am 04:56 Clear 69 20.5 65 18.3 87 87 SW 6 9 30.03 1017 10 16.0934 0 0
5:56 am 05:56 Clear 70 21.1 64 17.7 81 81 SW 8 13 30.02 1017 10 16.0934 0 0
6:56 am 06:56 Sunny 70 21.1 65 18.3 84 84 SW 7 11 30.04 1017 10 16.0934 0 0
7:56 am 07:56 Sunny 75 23.8 65 18.3 71 71 SW 14 22 30.03 1017 10 16.0934 0 0
8:56 am 08:56 Sunny 78 25.5 66 18.8 67 67 WSW 13 20 30.04 1017 10 16.0934 0 0
9:56 am 09:56 Sunny 80 26.6 67 19.4 65 65 WSW 13 20 30.04 1017 10 16.0934 0 0
10:56 am 10:56 Sunny 84 28.8 69 20.5 61 61 WSW 14 22 30.04 1017 10 16.0934 0 0
11:56 am 11:56 Sunny 86 30 69 20.5 57 57 W 12 19 30.04 1017 10 16.0934 0 0
12:56 pm 12:56 Sunny 89 31.6 70 21.1 54 54 WSW 14 22 30.03 1017 10 16.0934 0 0
1:56 pm 13:56 Sunny 91 32.7 69 20.5 49 49 WSW 17 28 30.02 1017 10 16.0934 0 0
2:56 pm 14:56 Sunny 91 32.7 69 20.5 49 49 WSW 15 24 30.01 1016 10 16.0934 0 0
3:56 pm 15:56 Sunny 92 33.3 68 20 46 46 WSW 17 28 30 1016 10 16.0934 0 0
4:56 pm 16:56 Sunny 93 33.8 67 19.4 43 43 WSW 14 22 29.99 1016 10 16.0934 0 0
5:56 pm 17:56 Sunny 91 32.7 68 20 47 47 WSW 13 20 29.98 1015 10 16.0934 0 0
6:56 pm 18:56 Sunny 90 32.2 67 19.4 47 47 WSW 14 22 29.97 1015 10 16.0934 0 0
7:56 pm 19:56 Sunny 88 31.1 68 20 52 52 SW 12 19 29.97 1015 10 16.0934 0 0
8:56 pm 20:56 Sunny 84 28.8 66 18.8 55 55 SW 9 15 29.97 1015 10 16.0934 0 0
9:56 pm 21:56 Clear 81 27.2 66 18.8 60 60 SW 8 13 29.98 1015 10 16.0934 0 0
10:56 pm 22:56 Clear 79 26.1 65 18.3 62 62 SW 8 13 29.99 1016 10 16.0934 0 0
11:56 pm 23:56 Clear 78 25.5 65 18.3 64 64 SW 9 15 29.99 1016 10 16.0934 0 0

Powered by AerisWeather